Regional Weather Roundup
Issued by NWS Wakefield, VA

Home | Current Version | Previous Version | Text Only | Print | Product List | Glossary On
Versions: 1 2 3 4 5 6 7 8 9 10 11 12 13 14 15 16 17 18 19 20 21 22 23 24 25 26 27 28 29 30 31 32 33 34 35 36 37 38 39 40 41 42 43 44 45 46 47 48 49 50
000
ASUS41 KAKQ 231710
RWRAKQ

REGIONAL WEATHER ROUNDUP
NATIONAL WEATHER SERVICE WAKEFIELD VA
100 PM EDT SAT AUG 23 2014

Note: "fair" indicates few or no clouds below 12,000 feet with no
significant weather and/or obstructions to visibility. * = Denotes
station may not report precipitation (e.g., rain,snow,etc.),
thunder or fog.

VAZ042-051-052>054-056-231800-
NORTHERN VIRGINIA

CITY           SKY/WX    TMP DP  RH WIND       PRES   REMARKS
WASH NATIONAL  CLOUDY    75  64  69 SE5       30.04F
DULLES         CLOUDY    69  66  90 E5        30.04S
FORT BELVOIR   LGT RAIN  70  68  94 VRB2      30.04S FOG
QUANTICO       DRIZZLE   72  67  84 E9        30.04S
FREDERICKSBRG* CLOUDY    75  71  86 NE7       30.01S
STAFFORD*      CLOUDY    72  72 100 NE9       30.07S
WARRENTON      CLOUDY    74  72  93 E8        30.03F
CULPEPER*      MOSUNNY  N/A N/A N/A E5        30.03F
MANASSAS*      NOT AVBL
LEESBURG*      LGT RAIN  70  68  94 E8        30.05F
WINCHESTER     CLOUDY    70  66  88 E5        30.04R
$$

VAZ048-049-060>072-079>083-231800-
CENTRAL AND SOUTH CENTRAL VIRGINIA...AND NORTH CENTRAL NORTH CAROLINA

CITY           SKY/WX    TMP DP  RH WIND       PRES   REMARKS
RICHMOND       CLOUDY    79  70  74 E6        30.00F
CHESTERFIELD*  CLOUDY    75  63  64 E5        30.02S
HANOVER        CLOUDY    78  69  73 E5        30.02F
TAPPAHANNOCK*  PTSUNNY   79  64  60 NE5       30.02F
CHARLOTTSVILLE CLOUDY    73  69  87 SE5       30.03S
ORANGE*        CLOUDY    72  70  94 CALM      30.04F
LOUISA*        CLOUDY    75  70  83 CALM      30.02S
FARMVILLE*     CLOUDY    79  73  83 E5        30.00S
SOUTH HILL*    PTSUNNY   79  73  83 SE3       30.04F
ROANOKE RAPIDS RAIN      73  72  94 NE5       29.99S
RALEIGH        PTSUNNY   84  72  67 E5        29.97F
$$

VAZ088>098-231800-
SOUTHEAST VIRGINIA

CITY           SKY/WX    TMP DP  RH WIND       PRES   REMARKS
NORFOLK        PTSUNNY   79  68  69 E10       29.99S
VIRGINIA BEACH PTSUNNY   78  68  71 NE9       29.98F
NORFOLK NAVAL  CLOUDY    79  69  71 E14       30.01S
WEST POINT*    MOSUNNY   82  67  58 NE6       30.02F
NEWPORT NEWS   PTSUNNY   82  69  64 E9        30.00S
LANGLEY AFB    PTSUNNY   79  70  73 E12       29.99S
FORT EUSTIS    PTSUNNY   79  65  62 E8        29.98S
WILLIAMSBURG*  MOSUNNY   81  72  74 CALM      30.01S
FRANKLIN*      CLOUDY    79  72  78 NE3       29.99S
WAKEFIELD      LGT RAIN  76  71  85 VRB3      30.00S
$$

VAZ020-022-025-037-045-231800-
WESTERN AND SOUTHWEST VIRGINIA

CITY           SKY/WX    TMP DP  RH WIND       PRES   REMARKS
STAUNTON*      RAIN      73  69  88 E6        30.05F
HOT SPRINGS VA CLOUDY    71  64  76 W5        30.16F
LYNCHBURG      CLOUDY    73  71  93 E5        30.04S FOG
DANVILLE       CLOUDY    81  72  74 NE6       29.99F
MARTINSVILLE   CLOUDY    83  71  68 CALM      30.03S
ROANOKE        CLOUDY    79  69  71 CALM      30.04F
BLACKSBURG     CLOUDY    79  73  83 CALM      30.09F
DUBLIN*        CLOUDY    79  71  78 CALM      30.09F
MARION*        CLOUDY   N/A N/A N/A W5        30.14S
HILLSVILLE*    CLOUDY    74  68  80 N6        30.11S
RICHLANDS*     CLOUDY    77  71  81 CALM      30.12S
WISE*          PTSUNNY   79  68  69 NW7       30.14S
ABINGDON*      PTSUNNY   81  71  70 NW6       30.09S
$$

MDZ021>025-VAZ099-100-231800-
SOUTHERN MARYLAND AND THE DELMARVA PENINSULA

CITY           SKY/WX    TMP DP  RH WIND       PRES   REMARKS
PATUXENT RIVER CLOUDY    75  66  73 E5        30.02F
BAY BRIDGE APT LGT RAIN  72  68  88 NE3       30.04S
LEONARDTOWN    CLOUDY    73  64  73 CALM      30.04S
DOVER          SUNNY     78  65  65 E15       30.03S
GEORGETOWN     CLOUDY    76  64  66 E13G22    30.04R
EASTON         CLOUDY    77  68  73 E3        30.06F
CAMBRIDGE      CLOUDY    79  66  65 CALM      30.02S
SALISBURY      CLOUDY    77  67  71 E7        30.02S
OCEAN CITY     PTSUNNY   77  67  71 E13       30.03R
WALLOPS ISLAND MOSUNNY   79  69  71 E13       30.02S
ACCOMACK*      MOSUNNY   79  64  61 E9        30.01S
$$

NCZ012>017-030>032-231800-
EASTERN NORTH CAROLINA

CITY           SKY/WX    TMP DP  RH WIND       PRES   REMARKS
ELIZABETH CITY LGT RAIN  75  73  93 E7        29.98S FOG
AHOSKIE*       MOSUNNY   78  71  80 NE5       29.98F
EDENTON*       PTSUNNY   81  72  73 E7        29.97S
CURRITUCK*     LGT RAIN  79  69  71 NE5       29.99S
KILL DEVIL HLS PTSUNNY   81  71  71 E6        29.96F
MANTEO         CLOUDY    81  72  74 NE13      29.97F
CAPE HATTERAS  PTSUNNY   82  71  69 E9        29.95F
GOLDSBORO      PTSUNNY   84  79  83 N6        29.93S HX  96
WASHINGTON     SUNNY     81  71  69 E7        29.95F
GREENVILLE     MOSUNNY   82  73  74 E6        29.97F
NEW BERN       PTSUNNY   86  73  65 SE5       29.96F
WILMINGTON     PTSUNNY   84  76  76 E9        29.93S
$$

VAZ048-231800-
ELSEWHERE

CITY           SKY/WX    TMP DP  RH WIND       PRES   REMARKS
HARRISBURG PA  CLOUDY    71  63  75 SE8       30.06F
BALTIMORE      LGT RAIN  71  67  87 E5        30.04F
ANNAPOLIS      LGT RAIN  73  66  78 E5        30.03F
ANDREWS AFB    PTSUNNY   72  68  88 E5        30.04S
WILMINGTON DE  CLOUDY    73  64  73 NE14      30.07S
PHILADELPHIA   PTSUNNY   74  64  71 E9        30.07F
WILDWOOD NJ*   PTSUNNY   75  61  60 E15G23    30.05F
ATLANTIC CITY  PTSUNNY   73  63  70 E15       30.06S
HENDERSON NC   CLOUDY    77  69  77 NE6       29.99S
GREENSBORO     CLOUDY    84  72  67 N5        29.99F
ROCKY MOUNT    PTSUNNY   83  72  69 VRB3      29.97F
FAYETTEVILLE   MOSUNNY   88  74  63 N3        29.93F HX  96
CHARLOTTE      CLOUDY    88  68  51 N9        29.99F
$$

VAZ100-231800-
MARINE

STATION/POSITION TIME  TEMP    WIND        PRES    WAVE   SWELL
                       AIR SEA DIR/SP/G            HT/PER HT/PER
                 (UTC) (F)     (DEG/KT/KT) (MB)    (FT/S) (FT/S)
44066 TX TWR #4  1700   70 73   60/ 17/ 21 1017.2S   6/ 7
CAPE MAY NJ      1700   73 79   80/ 13/ 17 1016.7F
LEWES DE         1700   74 75  100/ 13/ 16 1016.9S
15NM E FENWICK I 1700   74 76              1016.3S   5/ 6
OCEAN-CITY-INLET 1700   76 76   90/ 10/ 16 1016.4S
WACHAPREAGUE VA  1700   76 80   50/ 10/ 13 1016.2S
THOMAS POINT MD  1700   72 78   40/  7/  7 1017.5F
GOOSES REEF MD   1700   75     130/  4/  6 1017.2F
COVE POINT MD    1700   75      90/  5/  7 1016.5S
SOLOMONS ISLAND  1700      79                N/A
BISHOPS HEAD MD  1700   77 78   90/  4/  6 1016.0S
PINEY POINT MD   1700          120/  5/  5   N/A
POTOMAC MD       1700   75     100/  6/  8 1015.8F
CAMBRIDGE MD     1700   76 79   90/  4/  5 1016.2S
LEWISETTA VA     1700   75 78  120/  6/  7 1016.1S
RAPPAHANNOCK LGT 1700           60/  7/  8 1016.6F
STINGRAY PT      1700   77      90/  6/  8   N/A
YORK RVR RNG VA  1700   77      80/  9/ 11 1015.5S
YORKTOWN VA      1700   76 81   90/ 10/ 12 1015.7S
JAMESTOWN VA     1700   76     120/  6/ 10   N/A
DOMINION TERM VA 1700   78     100/  2/  7 1015.8S
KIPTOPEKE VA     1700      82   40/  7/ 14   N/A
CHES BAY BRIDGE  1700   76 76   50/ 12/ 13 1015.2S
CAPE HENRY VA    1700   76      70/  9/ 12 1014.5F
CHESAPEAKE LGHT  1600   75      70/ 13/ 14 1016.2S
WILLOUBY STN VA  1700   76      80/ 11/ 13 1014.5S
S CRANEY ISL VA  1700           50/ 10/ 12 1015.2F
CAPE HENRY BUOY  1700      78                N/A     3/ 5
1ST LANDING BUOY 1700   77      70/ 10/ 12 1015.5S
CAPE CHARLES BUO 1700      78                N/A     3/ 5   2/ 6
OFFSHORE WE BUOY 1600      78                N/A     3/ 5   2/ 6
64NM E OF VA BCH 1700   77 78   60/ 10/ 12 1014.4F   3/ 5   2/ 5
DUCK PIER NC     1700   78 80   60/ 13/ 15 1014.2F
44056 DUCK FRF   1700                        N/A     3/ 5
OREGON INLET NC  1700   80 81   40/ 11/ 15 1014.5S
HATTERAS NC      1700   81 81   40/  8/ 11 1014.8F
DIAMOND SHLS NC  1600   78     350/  8/ 10 1014.4R   2/ 8   2/ 8
CAPE LOOKOUT NC  1600   78      80/ 10/ 11 1014.1F
$$


USA.gov is the U.S. government's official web portal to all federal, state and local government web resources and services.